Regional Weather Roundup
Issued by NWS

Home | Current Version | Previous Version | Text Only | Print | Product List | Glossary Off
Versions: 1 2 3 4 5 6 7 8 9 10 11 12 13 14 15 16 17 18 19 20 21 22 23 24 25 26 27

000
ASUS45 KSLC 231210
RWRUT

UTAH REGIONAL WEATHER ROUNDUP
NATIONAL WEATHER SERVICE SALT LAKE CITY UT
600 AM MDT TUE AUG 23 2016

UTZ001>011-023>025-231300-

NORTHERN UTAH

CITY           SKY/WX    TMP DP  RH WIND       PRES   REMARKS
BRIGHAM CITY     N/A     54  33  44 SE3       30.05R
HILL AFB       PTCLDY    64  33  32 E9        30.07R
LOGAN          PTCLDY    52  37  56 CALM      30.07R
OGDEN          PTCLDY    64  34  32 S8        30.04R
PROVO AIRPORT  PTCLDY    61  41  48 SE5       30.08R
SALT LAKE CITY PTCLDY    70  42  36 S12       30.02R
VERNAL         CLEAR     55  38  52 W5        30.11R
WENDOVER       PTCLDY    66  25  20 SE7       30.04R
HEBER CITY     PTCLDY    50  37  62 CALM      30.12R
WEST JORDAN    PTCLDY    67  45  44 S12       30.06R

$$

UTZ012>022-026-027-231300-

SOUTHERN/CENTRAL UTAH

CITY           SKY/WX    TMP DP  RH WIND       PRES   REMARKS
BLANDING       MOCLDY    59  47  64 NE6       30.23F
BRYCE CANYON   CLOUDY    51  46  83 CALM      30.28R
CEDAR CITY     CLOUDY    56  49  77 E5        30.17R
DELTA          CLOUDY    63  41  45 S6        30.08S
MILFORD        CLOUDY    60  53  77 SE9       30.08S
MOAB/CYNLANDS  CLOUDY    63  55  75 NW3       30.09R
PRICE          PTCLDY    55  41  59 NE6       30.17S
ST GEORGE      MOSUNNY   68  54  60 SW12      30.07R

$$

REGIONAL REPORTS     COLORADO/ARIZONA

CITY           SKY/WX    TMP DP  RH WIND       PRES   REMARKS
CRAIG, CO      CLOUDY    44  39  82 CALM      30.19R
GRAND JUNCTION CLOUDY    61  47  59 E12       30.13R
RIFLE          CLOUDY    51  46  83 CALM      30.18R
MONTROSE       CLOUDY    52  44  74 CALM      30.21R
CORTEZ         CLOUDY    55  49  80 CALM      30.19R
PAGE, AZ       MOCLDY    68  47  46 E5        30.07F
GRAND CANYON   PTCLDY    50  46  86 CALM      30.23R
KINGMAN        CLOUDY    62  58  86 SE6       30.07R
FLAGSTAFF      CLOUDY    52  47  83 S9        30.28S

$$

REGIONAL REPORTS    NEVADA/IDAHO/WYOMING

CITY           SKY/WX    TMP DP  RH WIND       PRES   REMARKS
LAS VEGAS, NV  MOCLDY    71  58  63 NE7       29.98R
ELY            MOCLDY    45  40  82 SE10      30.21S
ELKO           PTCLDY    57  31  37 W6        30.10R
POCATELLO, ID  CLEAR     56  20  24 SW9       30.06R
BURLEY         PTCLDY    50  33  52 S8        30.05R
EVANSTON, WY   CLOUDY    54  22  28 S8        30.20S
ROCK SPRINGS   CLOUDY    55  14  19 W10       30.16R

$$




USA.gov is the U.S. government's official web portal to all federal, state and local government web resources and services.